Homer, AK

6:43 AM AKST on January 17, 2017 (GMT -0900)
Homer

Weather History for PAHO - May, 2014

Change the Weather History Date:

Monday, May 5, 2014

  Actual Average Record
Temperature  
Mean Temperature 47 °F -  
Max Temperature 55 °F 47 °F 56 °F (1934)
Min Temperature 39 °F 33 °F 20 °F (1945)
Degree Days  
Heating Degree Days 18    
Moisture  
Dew Point 36 °F    
Average Humidity 64    
Maximum Humidity 82    
Minimum Humidity 45    
Precipitation  
Precipitation 0.03 in - - ()
Sea Level Pressure  
Sea Level Pressure 29.90 in    
Wind  
Wind Speed 4 mph (WSW)    
Max Wind Speed 13 mph    
Max Gust Speed -    
Visibility 10 miles    
Events Fog , Rain    
Averages and records for this station are not official NWS values.
T = Trace of Precipitation, MM = Missing Value Source: NWS Daily Summary

Daily Weather History Graph

Daily Weather History Graph

Search for Another Location

Airport or City:

Trip Planner

Search our weather history database for the weather conditions in past years. The results will help you decide how hot, cold, wet, or windy it might be!

Date:

Astronomy

May. 05, 2014 Rise Set
Actual Time 5:54 AM AKDT 10:12 PM AKDT
Civil Twilight 4:59 AM AKDT 11:07 PM AKDT
Nautical Twilight 3:29 AM AKDT 12:40 AM AKDT
Astronomical Twilight Sun does not rise Sun does not rise
Moon 11:32 AM AKDT (5/5) 2:56 AM AKDT (5/5)
Length of Visible Light 18h 07m
Length of Day
16h 17m
Waxing Crescent, 38% of the Moon is Illuminated
May 5
Waxing Crescent
May 6
First Quarter
May 14
Full
May 21
Last Quarter
May 28
New

Hourly Weather History & Observations

Time (AKDT) Temp. Windchill Dew Point Humidity Pressure Visibility Wind Dir Wind Speed Gust Speed Precip Events Conditions
12:53 AM 42.1 °F - 33.1 °F 70% 29.89 in 10.0 mi Calm Calm - N/A   Clear
1:53 AM 43.0 °F 40.3 °F 34.0 °F 71% 29.89 in 10.0 mi NE 4.6 mph - N/A   Clear
2:53 AM 44.1 °F 42.5 °F 36.0 °F 73% 29.89 in 10.0 mi NNE 3.5 mph - N/A   Clear
3:53 AM 43.0 °F - 37.0 °F 80% 29.88 in 10.0 mi Calm Calm - N/A   Partly Cloudy
4:53 AM 42.1 °F - 35.1 °F 76% 29.88 in 10.0 mi Calm Calm - N/A   Scattered Clouds
5:53 AM 39.9 °F - 34.0 °F 79% 29.88 in 10.0 mi Calm Calm - N/A   Mostly Cloudy
6:53 AM 39.0 °F - 34.0 °F 82% 29.88 in 10.0 mi Calm Calm - N/A Fog Patches of Fog
7:53 AM 45.0 °F - 37.0 °F 74% 29.89 in 10.0 mi Calm Calm - N/A Fog Patches of Fog
8:53 AM 48.0 °F - 39.9 °F 74% 29.89 in 10.0 mi Calm Calm - N/A   Clear
10:53 AM 52.0 °F - 36.0 °F 54% 29.89 in 10.0 mi SW 6.9 mph - N/A   Mostly Cloudy
11:53 AM 53.1 °F - 36.0 °F 52% 29.91 in 10.0 mi SW 9.2 mph - N/A   Clear
12:53 PM 55.9 °F - 35.1 °F 45% 29.90 in 10.0 mi WSW 9.2 mph - N/A   Mostly Cloudy
1:53 PM 55.0 °F - 35.1 °F 47% 29.91 in 10.0 mi West 9.2 mph - N/A   Mostly Cloudy
2:53 PM 54.0 °F - 35.1 °F 49% 29.91 in 10.0 mi WSW 10.4 mph - N/A   Clear
3:53 PM 54.0 °F - 34.0 °F 47% 29.90 in 10.0 mi West 11.5 mph - N/A   Clear
4:53 PM 54.0 °F - 35.1 °F 49% 29.90 in 10.0 mi WSW 11.5 mph - N/A   Clear
5:53 PM 52.0 °F - 35.1 °F 53% 29.89 in 10.0 mi West 12.7 mph - N/A   Clear
6:53 PM 52.0 °F - 35.1 °F 53% 29.90 in 10.0 mi West 8.1 mph - N/A   Clear
7:53 PM 50.0 °F - 35.1 °F 57% 29.91 in 10.0 mi Variable 4.6 mph - N/A   Clear
8:53 PM 50.0 °F - 36.0 °F 59% 29.91 in 10.0 mi SSW 6.9 mph - N/A   Overcast
9:53 PM 48.0 °F - 37.0 °F 66% 29.91 in 9.0 mi Calm Calm - 0.00 in Rain Light Rain
10:53 PM 46.0 °F - 37.9 °F 73% 29.89 in 10.0 mi Calm Calm - 0.02 in Rain Light Rain
11:53 PM 46.9 °F - 41.0 °F 80% 29.90 in 10.0 mi WSW 3.5 mph - 0.01 in   Overcast